User: anonymous   Login
Location: Unspecified
(0.0000°N, 0.0000°E)
Time: 23:57:42
(UTC+00:00)
Language:

STARLINK-31190 - Orbit

View from above orbital plane
View from above orbital plane
View from above satellite
View from above satellite

Ground track
Ground track

The orbit is defined by the following mean orbital elements,

1 58897U          26145.50734352 +.00000000 +00000-0 +15376-4 0 00003
2 58897  53.1614 325.5075 0001302  86.3732 273.7418 15.31704006    00
Epoch (UTC): 25 May 2026 12:10:34
Eccentricity: 0.0001302
inclination: 53.1614°
perigee height: 470 km
apogee height: 472 km
right ascension of ascending node: 325.5075°
argument of perigee: 86.3732°
revolutions per day: 15.31704006
mean anomaly at epoch: 273.7418°

The dashed part of the orbit path shows where the satellite is in the earth's shadow,  

DLR